Terug naar catalogus

BREEZE-M DEB

TANK

ActiefHEO
NORAD 47243·DEBRIS·🇷🇺 Russia

Gelanceerd Dec 14, 2020 vanaf Plesetsk Cosmodrome

Loading…

Volgende Passages (komende 24 uur)

TLE

VersSource: Space-Track

Epoch: Sep 13, 2026, 21:49 UTC

1 47243U 20097B   26256.90905970  .00001632  00000-0  10647-2 0  9990
2 47243  58.5505  89.4676 7320153 117.1155 332.8009  2.20830572 46163

Volg BREEZE-M DEB in realtime met AllMySat

Download on the App Store